TimeCDT,TemperatureF,Dew PointF,Humidity,Sea Level PressureIn,VisibilityMPH,Wind Direction,Wind SpeedMPH,Gust SpeedMPH,PrecipitationIn,Events,Conditions,WindDirDegrees,DateUTC
12:51 AM,78.1,66.0,66,30.05,10.0,South,8.1,-,N/A,,Clear,170,2013-08-21 05:51:00
1:51 AM,77.0,66.0,69,30.04,10.0,South,5.8,-,N/A,,Clear,190,2013-08-21 06:51:00
2:51 AM,75.0,66.0,73,30.04,10.0,Calm,Calm,-,N/A,,Clear,0,2013-08-21 07:51:00
3:51 AM,73.0,66.0,79,30.04,10.0,Calm,Calm,-,N/A,,Clear,0,2013-08-21 08:51:00
4:51 AM,73.0,66.0,79,30.05,9.0,Calm,Calm,-,N/A,,Clear,0,2013-08-21 09:51:00
5:51 AM,73.0,64.9,76,30.06,9.0,Calm,Calm,-,N/A,,Clear,0,2013-08-21 10:51:00
6:51 AM,73.0,64.9,76,30.08,9.0,Calm,Calm,-,N/A,,Clear,0,2013-08-21 11:51:00
7:51 AM,75.9,66.0,71,30.09,10.0,SSW,3.5,-,N/A,,Clear,210,2013-08-21 12:51:00
8:51 AM,79.0,66.0,64,30.10,10.0,SW,4.6,-,N/A,,Partly Cloudy,220,2013-08-21 13:51:00
9:51 AM,82.9,66.0,56,30.10,10.0,SSW,4.6,-,N/A,,Clear,200,2013-08-21 14:51:00
10:51 AM,84.9,66.0,53,30.10,10.0,SSW,6.9,-,N/A,,Partly Cloudy,210,2013-08-21 15:51:00
11:51 AM,87.1,64.0,46,30.10,10.0,WSW,9.2,-,N/A,,Partly Cloudy,240,2013-08-21 16:51:00
12:51 PM,88.0,62.1,42,30.09,10.0,Calm,Calm,-,N/A,,Scattered Clouds,0,2013-08-21 17:51:00
1:51 PM,90.0,62.1,39,30.06,10.0,SSW,5.8,-,N/A,,Scattered Clouds,210,2013-08-21 18:51:00
2:51 PM,90.0,62.1,39,30.04,10.0,SSW,4.6,-,N/A,,Scattered Clouds,200,2013-08-21 19:51:00
3:51 PM,91.0,62.1,38,30.04,10.0,WSW,10.4,-,N/A,,Scattered Clouds,250,2013-08-21 20:51:00
4:51 PM,91.0,62.1,38,30.03,10.0,SW,5.8,-,N/A,,Partly Cloudy,230,2013-08-21 21:51:00
5:51 PM,90.0,62.1,39,30.02,10.0,West,8.1,-,N/A,,Scattered Clouds,280,2013-08-21 22:51:00
6:51 PM,88.0,62.1,42,30.01,10.0,West,8.1,-,N/A,,Scattered Clouds,270,2013-08-21 23:51:00
7:51 PM,86.0,62.1,44,30.01,10.0,West,3.5,-,N/A,,Scattered Clouds,270,2013-08-22 00:51:00
8:51 PM,84.0,64.0,51,30.01,10.0,SSW,3.5,-,N/A,,Scattered Clouds,210,2013-08-22 01:51:00
9:51 PM,81.0,64.9,58,30.04,10.0,Calm,Calm,-,N/A,,Clear,0,2013-08-22 02:51:00
10:51 PM,80.1,64.9,60,30.04,10.0,Calm,Calm,-,N/A,,Scattered Clouds,0,2013-08-22 03:51:00
11:51 PM,79.0,64.9,62,30.05,10.0,Calm,Calm,-,N/A,,Scattered Clouds,0,2013-08-22 04:51:00